TimeEDT,TemperatureF,Dew PointF,Humidity,Sea Level PressureIn,VisibilityMPH,Wind Direction,Wind SpeedMPH,Gust SpeedMPH,PrecipitationIn,Events,Conditions,WindDirDegrees,DateUTC
12:54 AM,66.2,64.4,94,29.95,10.0,WNW,3.5,-,N/A,,Mostly Cloudy,290,2011-08-20 04:54:00
1:54 AM,66.0,63.0,90,29.94,10.0,WSW,3.5,-,N/A,,Scattered Clouds,240,2011-08-20 05:54:00
2:54 AM,66.0,64.0,93,29.94,10.0,Calm,Calm,-,N/A,,Clear,0,2011-08-20 06:54:00
3:54 AM,66.2,62.6,88,29.94,10.0,Calm,Calm,-,N/A,,Clear,0,2011-08-20 07:54:00
4:54 AM,64.9,63.0,93,29.95,10.0,Calm,Calm,-,N/A,,Clear,0,2011-08-20 08:54:00
5:54 AM,64.0,62.1,93,29.97,9.0,Calm,Calm,-,N/A,,Clear,0,2011-08-20 09:54:00
6:54 AM,63.0,62.1,97,30.00,9.0,Calm,Calm,-,N/A,,Partly Cloudy,0,2011-08-20 10:54:00
7:54 AM,68.0,64.9,90,30.00,7.0,Calm,Calm,-,N/A,,Partly Cloudy,0,2011-08-20 11:54:00
8:54 AM,73.0,66.0,79,30.01,8.0,Calm,Calm,-,N/A,,Clear,0,2011-08-20 12:54:00
9:54 AM,75.9,64.9,69,30.01,8.0,Variable,3.5,-,N/A,,Clear,0,2011-08-20 13:54:00
10:54 AM,80.1,64.0,58,30.01,8.0,Calm,Calm,-,N/A,,Clear,0,2011-08-20 14:54:00
11:54 AM,81.0,66.0,60,30.00,8.0,Calm,Calm,-,N/A,,Partly Cloudy,0,2011-08-20 15:54:00
12:54 PM,82.9,64.9,54,30.00,9.0,ENE,4.6,-,N/A,,Scattered Clouds,60,2011-08-20 16:54:00
1:54 PM,87.1,64.0,46,29.99,9.0,Variable,4.6,-,N/A,,Scattered Clouds,0,2011-08-20 17:54:00
2:54 PM,86.0,62.1,44,29.98,10.0,Variable,3.5,-,N/A,,Scattered Clouds,0,2011-08-20 18:54:00
3:54 PM,86.0,66.0,51,29.97,10.0,SE,5.8,-,N/A,,Scattered Clouds,140,2011-08-20 19:54:00
4:54 PM,86.0,66.9,53,29.96,10.0,SE,8.1,-,N/A,,Scattered Clouds,140,2011-08-20 20:54:00
5:54 PM,84.0,66.9,56,29.96,10.0,SSE,6.9,-,N/A,,Scattered Clouds,150,2011-08-20 21:54:00
6:54 PM,82.0,66.0,58,29.96,10.0,South,4.6,-,N/A,,Scattered Clouds,170,2011-08-20 22:54:00
7:54 PM,79.0,66.9,66,29.97,10.0,SSE,3.5,-,N/A,,Scattered Clouds,150,2011-08-20 23:54:00
8:54 PM,77.0,69.1,76,29.97,10.0,SSE,3.5,-,N/A,,Mostly Cloudy,150,2011-08-21 00:54:00
9:54 PM,75.9,69.1,79,29.99,10.0,South,3.5,-,N/A,,Mostly Cloudy,170,2011-08-21 01:54:00
10:54 PM,75.0,68.0,79,29.99,10.0,South,3.5,-,N/A,,Scattered Clouds,190,2011-08-21 02:54:00
11:54 PM,73.9,68.0,82,29.99,10.0,Calm,Calm,-,N/A,,Scattered Clouds,0,2011-08-21 03:54:00